This demonstration page uses our WeatherBlox Daily Observations layout. Learn more.

Left ArrowRight Arrow

34.02893, -84.19858

Hourly Observations for October 29, 2015

Temp ( °F °C ) Dew Point ( °F °C ) Humidity (%) Winds ( mph kmh ) Pressure ( in mb ) Visibility ( mi km ) Precip ( " mm )
12:53 am 00:53 Clear 60 15.6 59 15 96 96 WSW 3 6 29.83 1010 10 16 0.00 0.00
1:53 am 01:53 Clear 57 13.9 57 13.9 100 100 Calm 29.82 1010 10 16 0.00 0.00
2:42 am 02:42 Clear with Mist and Fog 55 13 55 13 100 100 Calm 29.85 1011 3 4 0.00 0.00
2:51 am 02:51 Clear with Mist and Fog 54 12 54 12 100 100 Calm 29.85 1011 6 10 0.00 0.00
2:53 am 02:53 Clear with Mist and Fog 54 12.2 54 12.2 100 100 Calm 29.82 1010 5 8 0.00 0.00
2:58 am 02:58 Clear with Mist and Fog 54 12 54 12 100 100 Calm 29.85 1011 2 2 0.00 0.00
3:06 am 03:06 Clear with Fog 53 11.7 53 11.7 100 100 Calm 29.85 1011 1 1 0.00 0.00
3:28 am 03:28 Clear with Mist and Fog 55 13 55 13 100 100 Calm 29.85 1011 1 2 0.00 0.00
3:33 am 03:33 Mostly Cloudy with Mist and Fog 55 12.8 55 12.8 100 100 Calm 29.83 1010 1 1 0.00 0.00
3:47 am 03:47 Clear with Mist and Fog 55 13 55 13 100 100 Calm 29.85 1011 2 3 0.00 0.00
3:48 am 03:48 Clear with Mist and Fog 54 12.2 54 12.2 100 100 Calm 29.82 1010 2 3 0.00 0.00
4:02 am 04:02 Clear with Mist and Fog 54 12 54 12 100 100 Calm 29.83 1010 3 5 0.00 0.00
4:06 am 04:06 Clear with Mist and Fog 55 13 55 13 100 100 Calm 29.83 1010 2 3 0.00 0.00
4:18 am 04:18 Mostly Cloudy with Mist and Fog 54 12.2 54 12.2 100 100 Calm 29.83 1010 1 1 0.00 0.00
4:20 am 04:20 Mostly Cloudy with Fog 54 12 54 12 100 100 Calm 29.83 1010 1 1 0.00 0.00
4:36 am 04:36 Mostly Cloudy with Fog 51 10.6 51 10.6 100 100 Calm 29.83 1010 1 1 0.00 0.00
4:43 am 04:43 Mostly Cloudy with Mist and Fog 52 11.1 52 11.1 100 100 Calm 29.83 1010 1 1 0.00 0.00
4:53 am 04:53 Mostly Cloudy with Fog 52 11.1 52 11.1 100 100 Calm 29.81 1009 1 1 0.00 0.00
5:04 am 05:04 Mostly Cloudy with Mist and Fog 54 12 54 12 100 100 Calm 29.83 1010 1 2 0.00 0.00
5:11 am 05:11 Mostly Cloudy with Fog 52 11.1 52 11.1 100 100 Calm 29.83 1010 1 1 0.00 0.00
5:22 am 05:22 Mostly Cloudy with Mist and Fog 54 12 54 12 100 100 Calm 29.83 1010 1 1 0.00 0.00
5:25 am 05:25 Clear with Fog 52 11.1 52 11.1 100 100 Calm 29.83 1010 1 1 0.00 0.00
5:39 am 05:39 Clear with Mist and Fog 53 11.7 53 11.7 100 100 Calm 29.83 1010 1 2 0.00 0.00
5:44 am 05:44 Clear with Mist and Fog 54 12 54 12 100 100 Calm 29.85 1011 3 5 0.00 0.00
5:53 am 05:53 Clear with Mist and Fog 52 11.1 52 11.1 100 100 Calm 29.83 1010 4 6 0.00 0.00
5:59 am 05:59 Clear with Mist and Fog 52 11.1 52 11.1 100 100 Calm 29.85 1011 2 3 0.00 0.00
6:10 am 06:10 Mostly Cloudy with Mist and Fog 54 12 54 12 100 100 Calm 29.85 1011 1 1 0.00 0.00
6:15 am 06:15 Mostly Clear with Fog 54 12 54 12 100 100 Calm 29.85 1011 1 1 0.00 0.00
6:21 am 06:21 Mostly Cloudy with Mist and Fog 53 11.7 53 11.7 100 100 Calm 29.85 1011 1 2 0.00 0.00
6:25 am 06:25 Mostly Cloudy with Mist and Fog 53 11.7 53 11.7 100 100 Calm 29.85 1011 3 5 0.00 0.00
6:53 am 06:53 Partly Cloudy 53 11.7 53 11.7 100 100 Calm 29.84 1010 10 16 0.00 0.00
7:53 am 07:53 Mostly Cloudy 54 12.2 54 12.2 100 100 Calm 29.85 1011 8 13 0.00 0.00
8:53 am 08:53 Mostly Cloudy 58 14.4 58 14.4 100 100 S 3 6 29.86 1011 8 13 0.00 0.00
9:53 am 09:53 Mostly Sunny 63 17.2 61 16.1 93 93 SSW 5 7 29.86 1011 10 16 0.00 0.00
10:30 am 10:30 Cloudy 66 19 63 17 88 88 W 7 11 29.88 1012 10 16 0.00 0.00
10:35 am 10:35 Cloudy 65 18.3 62 16.7 90 90 WSW 12 19 29.88 1012 10 16 0.00 0.00
10:53 am 10:53 Cloudy 64 17.8 62 16.7 93 93 W 10 17 29.88 1012 9 14 0.00 0.00
11:53 am 11:53 Cloudy 65 18.3 62 16.7 90 90 WNW 7 11 29.89 1012 8 13 0.00 0.00
12:53 pm 12:53 Cloudy 65 18.3 62 16.7 90 90 WNW 7 11 29.89 1012 9 14 0.00 0.00
1:53 pm 13:53 Cloudy 65 18.3 62 16.7 90 90 W 7 11 29.90 1012 9 14 0.00 0.00
2:53 pm 14:53 Cloudy 64 18 63 17 94 94 W 6 9 29.88 1012 8 13 0.00 0.00
3:53 pm 15:53 Cloudy 68 20 61 16.1 78 78 NW 7 11 29.88 1012 10 16 0.00 0.00
4:10 pm 16:10 Partly Cloudy 66 19 59 15 78 78 WNW 7 11 29.88 1012 10 16 0.00 0.00
4:53 pm 16:53 Sunny 70 21.1 59 15 68 68 NNW 10 17 29.88 1012 10 16 0.00 0.00
5:53 pm 17:53 Sunny 68 20 56 13.3 65 65 NW 8 13 29.88 1012 10 16 0.00 0.00
6:53 pm 18:53 Clear 65 18.3 57 13.9 76 76 NW 3 6 29.89 1012 10 16 0.00 0.00
7:53 pm 19:53 Clear 60 15.6 58 14.4 93 93 WNW 3 6 29.91 1013 10 16 0.00 0.00
8:53 pm 20:53 Clear 55 12.8 55 12.8 100 100 Calm 29.93 1014 8 13 0.00 0.00
9:53 pm 21:53 Clear with Mist and Fog 55 12.8 54 12.2 96 96 Calm 29.93 1014 2 2 0.00 0.00
9:56 pm 21:56 Clear with Fog 52 11.1 52 11.1 100 100 Calm 29.94 1014 1 1 0.00 0.00
10:05 pm 22:05 Clear 53 11.7 53 11.7 100 100 Calm 29.94 1014 10 16 0.00 0.00
10:53 pm 22:53 Clear 52 11.1 52 11.1 100 100 Calm 29.95 1014 10 16 0.00 0.00
11:00 pm 23:00 Clear with Mist and Fog 54 12 54 12 100 100 Calm 29.97 1015 2 3 0.00 0.00
11:03 pm 23:03 Clear with Mist and Fog 54 12 54 12 100 100 Calm 29.97 1015 3 5 0.00 0.00
11:53 pm 23:53 Clear with Mist and Fog 52 11.1 52 11.1 100 100 Calm 29.96 1015 3 5 0.00 0.00

Powered by AerisWeather